[[{"header":{"parameterUnit":"m.s-1","parameterCategory":1,"la1":30.2991,"la2":30.254,"lo1":-89.0895,"lo2":-89.0444,"dy":0.0017,"dx":0.0017,"nx":28,"ny":28,"refTime":"2024-06-01T09:00:00:Z","depth":0,"parameterNumber":2,"parameterNumberName":"U-component_of_WINDS"},"data":[0,0,0,0,0,0,0,0,0,0,0,0,0,0,0,0,0,0,0,0,0,0,0,0,0,0,0,0,0,0,0,0,0,0,0,0,0,0,0,0,0,0,0,0,0,0,0,0,0,0,0,0,0,0,0,0,0,0,-1.2802,-1.2802,0,-1.2793,-1.2792,-1.2792,-1.2763,-1.2762,-1.2762,-1.2761,-1.2752,-1.2753,-1.2753,0,0,0,0,0,0,0,0,0,0,0,0,0,-1.2795,-1.2796,-1.2802,-1.2802,-1.2802,-1.2793,-1.2792,-1.2792,-1.2763,-1.2762,-1.2761,-1.2761,-1.2752,-1.2753,-1.2753,0,0,0,0,0,0,0,0,0,0,0,0,0,-1.2793,-1.2796,-1.2802,-1.2786,-1.2784,-1.2793,-1.2792,-1.2792,-1.2763,-1.2762,-1.2761,-1.276,-1.2752,-1.2752,-1.2753,-1.2776,0,0,-1.2755,-1.2755,0,0,0,0,0,0,0,0,-1.2793,-1.2794,-1.2788,-1.2787,-1.2785,-1.2778,-1.2787,-1.2787,-1.2763,-1.2771,-1.2761,-1.276,-1.2762,-1.2761,-1.2762,-1.2776,-1.2776,-1.2755,-1.2755,-1.2755,-1.2756,0,0,0,0,0,0,0,-1.2794,-1.2794,-1.2798,-1.2788,-1.2786,-1.278,-1.2778,-1.2787,-1.2772,-1.277,-1.2768,-1.2768,-1.2761,-1.2761,-1.2761,-1.2775,-1.2755,-1.2755,-1.2756,-1.2756,-1.2809,-1.281,0,0,0,0,0,0,-1.2796,-1.2794,-1.2798,-1.2798,-1.2787,-1.278,-1.2779,-1.2781,-1.2772,-1.2769,-1.2768,-1.2766,-1.2761,-1.2761,-1.2761,-1.2788,-1.2755,-1.2756,-1.2756,-1.2808,-1.2809,-1.281,0,0,0,0,0,0,-1.2796,-1.2797,-1.2799,-1.2795,-1.2795,-1.2782,-1.2784,-1.2782,-1.2782,-1.277,-1.2768,-1.2772,-1.276,-1.276,-1.2773,-1.2787,-1.2756,-1.2757,-1.2807,-1.2808,-1.281,-1.2842,0,0,0,0,0,0,-1.2796,-1.2797,-1.2805,-1.2796,-1.2795,-1.2811,-1.2785,-1.2782,-1.2783,-1.278,-1.2773,-1.2771,-1.2759,-1.2772,-1.2773,-1.2787,-1.2757,-1.2805,-1.2807,-1.2809,-1.2839,-1.2844,-1.2849,0,0,0,0,0,-1.2796,-1.2815,-1.2806,-1.2806,-1.2806,-1.2812,-1.2811,-1.2798,-1.2784,-1.2793,-1.2786,-1.2771,-1.2785,-1.2774,-1.2775,-1.2789,-1.2804,-1.2807,-1.2809,-1.2837,-1.2843,-1.2848,0,0,0,0,0,0,-1.2826,-1.2813,-1.2803,-1.2819,-1.2817,-1.2806,-1.2817,-1.2804,-1.2806,-1.2803,-1.2786,-1.2785,-1.28,-1.2796,-1.2783,-1.2812,-1.2792,-1.2795,-1.2814,-1.2819,-1.2824,-1.2824,-1.2758,0,0,0,0,0,-1.2835,-1.284,-1.2829,-1.2844,-1.2843,-1.2831,-1.2833,-1.2822,-1.2819,-1.2818,-1.2811,-1.2809,-1.2813,-1.2816,-1.2819,-1.2839,-1.2837,-1.2849,-1.2854,-1.2858,-1.286,-1.2871,-1.2876,-1.2818,-1.2818,-1.2818,0,0,-1.2852,-1.2846,-1.2851,-1.285,-1.2847,-1.2853,-1.283,-1.2837,-1.2842,-1.2819,-1.283,-1.2826,-1.2822,-1.2839,-1.2846,-1.2836,-1.2876,-1.2861,-1.2864,-1.2864,-1.2874,-1.288,-1.2885,-1.282,-1.282,-1.2819,0,0,-1.2888,-1.2884,-1.2896,-1.2894,-1.2889,-1.288,-1.2884,-1.2875,-1.2871,-1.2883,-1.2865,-1.2871,-1.2878,-1.2876,-1.2877,-1.2912,-1.2899,-1.2914,-1.2938,-1.2948,-1.2953,-1.2957,-1.297,-1.2975,-1.2917,-1.2917,-1.2917,0,-1.2911,-1.292,-1.2905,-1.2914,-1.2914,-1.2893,-1.2906,-1.2905,-1.2901,-1.2903,-1.2891,-1.29,-1.2896,-1.2913,-1.2921,-1.2922,-1.2925,-1.2915,-1.2953,-1.2957,-1.2961,-1.2973,-1.2978,-1.2919,-1.2918,-1.2918,-1.2918,0,-1.2948,-1.2955,-1.2965,-1.2963,-1.2964,-1.2976,-1.2963,-1.2966,-1.2956,-1.2949,-1.2961,-1.2956,-1.2957,-1.2961,-1.2951,-1.2976,-1.297,-1.2956,-1.2937,-1.2968,-1.298,-1.2984,-1.2921,-1.292,-1.292,-1.2919,0,0,-1.3002,-1.2991,-1.2996,-1.2994,-1.2988,-1.2993,-1.3003,-1.3005,-1.3009,-1.3007,-1.3016,-1.3023,-1.3011,-1.3011,-1.3001,-1.301,-1.3039,-1.2996,-1.2995,-1.3004,-1.3067,-1.3077,-1.3082,-1.3031,-1.3031,-1.3032,-1.3067,0,-1.3036,-1.3053,-1.304,-1.3059,-1.3065,-1.3046,-1.3055,-1.3052,-1.3046,-1.3051,-1.3044,-1.3049,-1.3032,-1.3032,-1.3041,-1.3034,-1.3052,-1.3031,-1.3039,-1.3039,-1.304,-1.3088,-1.3099,-1.3132,-1.3071,-1.3072,-1.3073,0,-1.3078,-1.3079,-1.3098,-1.3091,-1.3093,-1.3102,-1.3102,-1.3107,-1.3104,-1.3098,-1.3099,-1.3086,-1.3097,-1.3078,-1.3092,-1.3078,-1.308,-1.3078,-1.3079,-1.3079,-1.3058,-1.309,-1.3142,-1.3147,-1.3079,-1.3079,-1.3078,0,-1.3116,-1.3122,-1.3134,-1.3134,-1.3126,-1.3132,-1.3129,-1.3125,-1.3127,-1.3128,-1.3129,-1.3131,-1.3132,-1.3134,-1.3123,-1.311,-1.3139,-1.3119,-1.3135,-1.3135,-1.3142,-1.3141,-1.3195,-1.3143,-1.3143,-1.3143,-1.3143,0,-1.3155,-1.3168,-1.3151,-1.3159,-1.3173,-1.3158,-1.3173,-1.3168,-1.3164,-1.3171,-1.3155,-1.3162,-1.3146,-1.3152,-1.3143,-1.3156,-1.3157,-1.3153,-1.3151,-1.3155,-1.3155,-1.3156,-1.3153,-1.3144,-1.3144,-1.3144,-1.3144,0,-1.32,-1.3189,-1.3202,-1.3193,-1.3191,-1.3202,-1.3195,-1.3202,-1.3194,-1.3203,-1.3205,-1.3193,-1.3199,-1.3188,-1.3192,-1.3186,-1.3205,-1.3199,-1.3206,-1.3204,-1.3221,-1.322,-1.3277,-1.3284,-1.3228,-1.3228,-1.3229,0,-1.3226,-1.3235,-1.3228,-1.3231,-1.3229,-1.3234,-1.3236,-1.3222,-1.3225,-1.3223,-1.323,-1.3234,-1.3237,-1.3247,-1.3239,-1.3243,-1.3237,-1.3257,-1.3237,-1.3241,-1.3237,-1.3237,-1.3238,-1.3261,-1.3261,-1.3262,-1.3262,0,-1.3273,-1.3267,-1.3271,-1.3272,-1.3275,-1.3276,-1.3275,-1.3279,-1.3264,-1.3268,-1.3274,-1.3276,-1.328,-1.3284,-1.3286,-1.3283,-1.3271,-1.3269,-1.3273,-1.3277,-1.328,-1.3279,-1.3217,-1.3267,-1.3267,-1.3266,-1.3266,-1.3266,-1.3309,-1.3317,-1.3313,-1.3317,-1.3315,-1.3315,-1.3322,-1.3315,-1.3319,-1.3322,-1.3313,-1.3321,-1.3318,-1.3319,-1.3317,-1.3323,-1.3314,-1.332,-1.3321,-1.3323,-1.3326,-1.328,-1.3323,-1.3323,-1.3323,-1.3323,-1.3323,0,-1.3356,-1.3353,-1.3357,-1.3356,-1.336,-1.3347,-1.3346,-1.335,-1.3357,-1.3355,-1.3358,-1.3365,-1.3369,-1.3362,-1.3365,-1.3371,-1.3366,-1.3373,-1.3372,-1.3372,-1.3334,-1.333,-1.3377,-1.3377,-1.3377,-1.3377,-1.3377,-1.3377,-1.3381,-1.3393,-1.3387,-1.3398,-1.3395,-1.3402,-1.3402,-1.3402,-1.3401,-1.3409,-1.3412,-1.3408,-1.3404,-1.3407,-1.3411,-1.3408,-1.341,-1.342,-1.3416,-1.338,-1.3375,-1.3369,-1.3366,-1.342,-1.342,-1.3453,-1.3454,-1.3454]},{"header":{"parameterUnit":"m.s-1","parameterCategory":1,"la1":30.2991,"la2":30.254,"lo1":-89.0895,"lo2":-89.0444,"dy":0.0017,"dx":0.0017,"nx":28,"ny":28,"refTime":"2024-06-01T09:00:00:Z","depth":0,"parameterNumber":3,"parameterNumberName":"V-component_of_WINDS"},"data":[0,0,0,0,0,0,0,0,0,0,0,0,0,0,0,0,0,0,0,0,0,0,0,0,0,0,0,0,0,0,0,0,0,0,0,0,0,0,0,0,0,0,0,0,0,0,0,0,0,0,0,0,0,0,0,0,0,0,4.1702,4.1702,0,4.1709,4.1709,4.1709,4.166,4.1659,4.1658,4.1656,4.1663,4.1664,4.1666,0,0,0,0,0,0,0,0,0,0,0,0,0,4.1643,4.1645,4.1702,4.1702,4.1702,4.1709,4.1709,4.1709,4.1661,4.1659,4.1657,4.1656,4.1663,4.1664,4.1666,0,0,0,0,0,0,0,0,0,0,0,0,0,4.1661,4.1645,4.1702,4.1678,4.1676,4.1709,4.1709,4.1709,4.1661,4.1659,4.1657,4.1655,4.1662,4.1664,4.1666,4.1721,0,0,4.1673,4.1674,0,0,0,0,0,0,0,0,4.1661,4.1664,4.1682,4.168,4.1678,4.1682,4.1691,4.1713,4.1662,4.1667,4.1656,4.1654,4.1671,4.1672,4.1678,4.1722,4.1722,4.1673,4.1675,4.1676,4.1676,0,0,0,0,0,0,0,4.1659,4.1663,4.1704,4.1682,4.168,4.1667,4.1667,4.1695,4.168,4.1666,4.1663,4.1664,4.1669,4.1676,4.1678,4.1722,4.1673,4.1675,4.1676,4.1677,4.181,4.1812,0,0,0,0,0,0,4.1661,4.1662,4.1704,4.1705,4.1664,4.167,4.167,4.1683,4.168,4.1678,4.1666,4.1662,4.1673,4.1675,4.1678,4.1741,4.1676,4.1678,4.1679,4.1808,4.181,4.1813,0,0,0,0,0,0,4.166,4.1666,4.1704,4.1683,4.1687,4.1673,4.1687,4.1684,4.169,4.168,4.1677,4.1676,4.1672,4.1675,4.1711,4.174,4.1679,4.1681,4.1805,4.1809,4.1812,4.1868,0,0,0,0,0,0,4.1659,4.1665,4.1687,4.1683,4.1688,4.1737,4.1689,4.1685,4.1694,4.1689,4.1688,4.1686,4.167,4.1708,4.1713,4.1742,4.1682,4.1802,4.1807,4.1811,4.1863,4.1873,4.1881,0,0,0,0,0,4.1657,4.1702,4.1688,4.1693,4.1714,4.1739,4.1741,4.1723,4.1697,4.1718,4.1711,4.1686,4.1737,4.1712,4.1717,4.1748,4.18,4.1805,4.181,4.186,4.1871,4.1881,0,0,0,0,0,0,4.1709,4.1701,4.1685,4.1731,4.1736,4.1731,4.1756,4.1736,4.1748,4.1742,4.1719,4.1719,4.1759,4.1757,4.1729,4.18,4.1764,4.177,4.18,4.181,4.1819,4.1818,4.1684,0,0,0,0,0,4.1726,4.1747,4.1739,4.178,4.1784,4.177,4.178,4.1765,4.1769,4.1771,4.1767,4.1771,4.1788,4.1799,4.1815,4.1864,4.1862,4.1888,4.1896,4.1904,4.1909,4.1933,4.1944,4.1829,4.1829,4.1829,0,0,4.176,4.1759,4.1774,4.1791,4.1793,4.1814,4.1772,4.1797,4.1812,4.1775,4.1808,4.1805,4.1808,4.1851,4.1869,4.1851,4.194,4.191,4.1916,4.1917,4.1939,4.195,4.196,4.1832,4.1832,4.1831,0,0,4.1834,4.1836,4.187,4.1873,4.1877,4.1867,4.1876,4.1873,4.187,4.1903,4.1875,4.1893,4.1923,4.1926,4.1932,4.2008,4.1984,4.2013,4.2058,4.2082,4.2091,4.2099,4.2124,4.2134,4.2019,4.2019,4.2019,0,4.1877,4.1909,4.189,4.1916,4.1924,4.1892,4.1925,4.1929,4.1938,4.1943,4.1923,4.1959,4.1959,4.2001,4.202,4.2026,4.2033,4.2012,4.2092,4.2099,4.2106,4.213,4.214,4.2022,4.2022,4.2022,4.2021,0,4.196,4.1983,4.2009,4.2018,4.2029,4.206,4.2044,4.2058,4.2043,4.2035,4.2069,4.2068,4.2082,4.2091,4.2077,4.2131,4.2119,4.2096,4.2058,4.2121,4.2143,4.2152,4.2027,4.2026,4.2025,4.2024,0,0,4.2065,4.2064,4.2074,4.2077,4.2079,4.2096,4.2124,4.2138,4.2149,4.2157,4.2179,4.2205,4.2183,4.219,4.2175,4.2197,4.2255,4.2171,4.217,4.2184,4.2313,4.2329,4.234,4.224,4.2242,4.2244,4.2312,0,4.2136,4.2184,4.2168,4.2217,4.2237,4.2206,4.2231,4.2235,4.2229,4.2244,4.2238,4.2256,4.2227,4.223,4.225,4.2244,4.228,4.2239,4.2259,4.226,4.2257,4.2351,4.2369,4.2433,4.232,4.2322,4.2323,0,4.2225,4.2235,4.2286,4.2284,4.2292,4.2314,4.2325,4.2341,4.2344,4.2338,4.2346,4.2327,4.2354,4.2318,4.2354,4.2327,4.2334,4.2333,4.2335,4.2334,4.2294,4.2351,4.2453,4.2462,4.2336,4.2335,4.2334,0,4.2294,4.2321,4.2355,4.2359,4.2358,4.2374,4.2374,4.2375,4.2384,4.2394,4.2399,4.2413,4.2419,4.2429,4.2414,4.239,4.2452,4.2415,4.2447,4.2447,4.2459,4.2458,4.2562,4.2468,4.2468,4.2468,4.2468,0,4.2373,4.2405,4.2386,4.2406,4.244,4.2422,4.2456,4.2453,4.2455,4.2473,4.2449,4.2467,4.2447,4.2463,4.2452,4.2482,4.2486,4.2481,4.2477,4.2482,4.2483,4.2485,4.248,4.247,4.247,4.2469,4.2469,0,4.2456,4.2444,4.2478,4.2475,4.2475,4.25,4.2496,4.2515,4.2507,4.2531,4.2536,4.2524,4.2542,4.2528,4.2546,4.2538,4.2578,4.2569,4.2577,4.2574,4.2605,4.2601,4.2712,4.2725,4.2625,4.2626,4.2627,0,4.2506,4.253,4.2529,4.2539,4.2541,4.2559,4.2568,4.2551,4.2561,4.2567,4.2584,4.26,4.2611,4.2641,4.2634,4.2647,4.2636,4.2674,4.2638,4.2642,4.2635,4.2633,4.2634,4.2681,4.2682,4.2683,4.2684,0,4.2596,4.2589,4.2603,4.2616,4.2627,4.2636,4.2643,4.2653,4.2635,4.2648,4.2666,4.2675,4.2692,4.2708,4.2718,4.2718,4.2698,4.2696,4.2703,4.2707,4.271,4.2707,4.2595,4.2693,4.2692,4.2691,4.2691,4.269,4.2662,4.2682,4.2683,4.27,4.2703,4.271,4.2727,4.2722,4.2736,4.2749,4.2738,4.2759,4.2761,4.2774,4.2776,4.2792,4.2776,4.2787,4.279,4.2792,4.2796,4.2709,4.2794,4.2794,4.2793,4.2793,4.2793,0,4.2749,4.2749,4.2765,4.2775,4.2787,4.2768,4.2775,4.2786,4.2805,4.2809,4.2821,4.2841,4.2856,4.285,4.2863,4.2877,4.2868,4.288,4.2878,4.2878,4.281,4.2801,4.2887,4.2887,4.2887,4.2887,4.2887,4.2887,4.2796,4.2827,4.282,4.2852,4.2852,4.2872,4.2877,4.2883,4.2886,4.2909,4.2922,4.2918,4.2918,4.2931,4.2943,4.2941,4.2946,4.2962,4.2956,4.2892,4.2883,4.2874,4.2866,4.2964,4.2964,4.3022,4.3023,4.3023]}]]